loading
|

SCOUT A DEB, 3214

Orbit data source: Space-Track

SCOUT A DEB, 3214 is space debris in LEO originally from a launch on Sat, 02 Mar 1968 UTC launched from the Air Force Western Test Range (AFWTR). Debris objects in space refer to the collection of defunct objects orbiting the Earth. Examples of debris include non-operational satellites, rocket bodies, and fragments generated from explosions, collisions, or faulty payload assembly.

Loading next visibility...
Loading greatness...
SCOUT A DEB details
Identifier
3214, 1968-012D
Orbit
LEO
Last TLE update1 day ago
Origin
Flag of USUSN NAVAIR (US)
ManufacturerUnknown
MissionSpacecraft
Bus & MotorUnknown bus, Unknown motor
MassUnknown
Launch date (UTC)
1968-03-02 (57 years ago)
Launch vehicleUnknown
Launch site
Air Force Western Test Range (AFWTR)
Object type
Payload
Rocket body
Debris
Shape & HBRUnknown
Radar Cross SectionSmall (<0.1 m²)

Expand to show TLE details & history

TLE from 1 day ago
0 SCOUT A DEB
1 03214U 68012D   24276.30735890  .00000529  00000-0  10286-2 0  9998
2 03214  89.8423 113.8507 0185974 194.0985 222.6426 13.29013172501796
Epoch: 2024-10-02T07:22Z
Definitive object data (Epoch: 2024-10-02T07:22:35.808Z)
Latitude55.41253°
Longitude-8.07954°
Altitude1,263.934 km
Speed7.178 km/s
True Right ascension07h 36m 18s
True Declination55° 15' 44"
Sunlit
Object was in daylight at TLE epoch
Predictive object data (real-time)
Latitude37.01104°
Longitude-8.20838°
Altitude1,280.492 km
Speed7.159 km/s
Apparent Right ascension06h 38m 26s
Apparent Declination22° 09' 26"
Sunlit
Object is in daylight
Predictive observer data (real-time)
Local Sidereal Time07:50:33
Azimuth226.103° WSW
Elevation66.559°
Doppler factor1
Orbital elements
Apogee1,287.525 km
Perigee1,007.608 km
Semi-major axis7,525.704 km
Eccentricity0.0185974
Inclination89.8423°
RAAN113.8507°
Arg. of periapsis194.0985°
True anomaly221.22337°
Mean anomaly222.6426°
Eccentric anomaly221.93057°
Mean motion3.32447 °/min
BSTAR0.0010286
Period108.29 mins
No data available

SCOUT A DEB Visibility forecast

Observer location: 39.9160978°, -105.1181434

SCOUT A DEB is not visible in the next 10 days
Span
Click to sort rows by Start time (UTC) header in descending order
Start Az.
Max El. time (UTC)
Max El. Az.
Max El.
End time (UTC)
End Az.